[[{"header":{"parameterUnit":"m.s-1","parameterCategory":1,"la1":30.2991,"la2":30.254,"lo1":-89.0895,"lo2":-89.0444,"dy":0.0017,"dx":0.0017,"nx":28,"ny":28,"refTime":"2023-11-09T09:00:00:Z","depth":0,"parameterNumber":2,"parameterNumberName":"U-component_of_WINDS"},"data":[0,0,0,0,0,0,0,0,0,0,0,0,0,0,0,0,0,0,0,0,0,0,0,0,0,0,0,0,0,0,0,0,0,0,0,0,0,0,0,0,0,0,0,0,0,0,0,0,0,0,0,0,0,0,0,0,0,0,-3.1777,-3.1777,0,-3.1787,-3.1787,-3.1787,-3.1731,-3.1729,-3.1728,-3.1726,-3.1735,-3.1737,-3.1738,0,0,0,0,0,0,0,0,0,0,0,0,0,-3.1709,-3.171,-3.1777,-3.1777,-3.1777,-3.1787,-3.1787,-3.1787,-3.1731,-3.1729,-3.1727,-3.1725,-3.1734,-3.1736,-3.1739,0,0,0,0,0,0,0,0,0,0,0,0,0,-3.1731,-3.1711,-3.1777,-3.175,-3.1748,-3.1787,-3.1787,-3.1787,-3.1731,-3.1729,-3.1727,-3.1724,-3.1734,-3.1736,-3.1739,-3.1803,0,0,-3.1747,-3.1748,0,0,0,0,0,0,0,0,-3.173,-3.1733,-3.1754,-3.1752,-3.175,-3.1755,-3.1766,-3.1793,-3.1732,-3.1738,-3.1726,-3.1723,-3.1744,-3.1745,-3.1752,-3.1804,-3.1804,-3.1747,-3.1749,-3.175,-3.175,0,0,0,0,0,0,0,-3.1728,-3.1733,-3.1781,-3.1755,-3.1752,-3.1738,-3.1738,-3.1771,-3.1754,-3.1737,-3.1733,-3.1735,-3.1742,-3.175,-3.1752,-3.1804,-3.1747,-3.1749,-3.1751,-3.1752,-3.191,-3.1912,0,0,0,0,0,0,-3.173,-3.1732,-3.1781,-3.1781,-3.1734,-3.1741,-3.1742,-3.1756,-3.1754,-3.1751,-3.1737,-3.1732,-3.1747,-3.1749,-3.1752,-3.1827,-3.175,-3.1752,-3.1754,-3.1907,-3.191,-3.1913,0,0,0,0,0,0,-3.1729,-3.1735,-3.178,-3.1755,-3.176,-3.1745,-3.1761,-3.1757,-3.1765,-3.1754,-3.175,-3.1748,-3.1745,-3.1749,-3.1791,-3.1827,-3.1753,-3.1756,-3.1904,-3.1908,-3.1912,-3.1979,0,0,0,0,0,0,-3.1727,-3.1735,-3.1759,-3.1756,-3.1762,-3.1819,-3.1764,-3.1759,-3.177,-3.1764,-3.1763,-3.1761,-3.1743,-3.1788,-3.1794,-3.1829,-3.1758,-3.1901,-3.1906,-3.1911,-3.1973,-3.1984,-3.1994,0,0,0,0,0,-3.1725,-3.1777,-3.1761,-3.1767,-3.1792,-3.1821,-3.1824,-3.1803,-3.1773,-3.1797,-3.179,-3.1761,-3.1823,-3.1793,-3.1799,-3.1836,-3.1898,-3.1905,-3.191,-3.1968,-3.1982,-3.1994,0,0,0,0,0,0,-3.1783,-3.1776,-3.1758,-3.1811,-3.1817,-3.1812,-3.1841,-3.1818,-3.1833,-3.1827,-3.18,-3.18,-3.1848,-3.1846,-3.1813,-3.1899,-3.1855,-3.1863,-3.1897,-3.191,-3.1921,-3.1919,-3.176,0,0,0,0,0,-3.1803,-3.1828,-3.182,-3.1867,-3.1872,-3.1856,-3.1868,-3.1852,-3.1858,-3.186,-3.1855,-3.1862,-3.1883,-3.1897,-3.1915,-3.1974,-3.1972,-3.2002,-3.2013,-3.2021,-3.2027,-3.2059,-3.2072,-3.1933,-3.1933,-3.1933,0,0,-3.1842,-3.1841,-3.1858,-3.1879,-3.1882,-3.1909,-3.1859,-3.1889,-3.1908,-3.1864,-3.1904,-3.1902,-3.1907,-3.1958,-3.198,-3.1958,-3.2066,-3.2029,-3.2036,-3.2037,-3.2066,-3.2079,-3.2091,-3.1937,-3.1936,-3.1935,0,0,-3.1927,-3.1929,-3.1969,-3.1974,-3.198,-3.1969,-3.1979,-3.1978,-3.1975,-3.2015,-3.1983,-3.2006,-3.2042,-3.2047,-3.2055,-3.2145,-3.2118,-3.2152,-3.2206,-3.2236,-3.2247,-3.2257,-3.2288,-3.23,-3.2159,-3.2159,-3.2159,0,-3.1974,-3.2013,-3.1992,-3.2024,-3.2035,-3.1998,-3.2038,-3.2044,-3.2055,-3.2063,-3.2039,-3.2084,-3.2085,-3.2137,-3.2159,-3.2167,-3.2177,-3.2151,-3.2248,-3.2257,-3.2265,-3.2295,-3.2307,-3.2163,-3.2162,-3.2162,-3.2162,0,-3.2072,-3.2099,-3.2131,-3.2144,-3.2158,-3.2194,-3.2178,-3.2195,-3.2179,-3.2171,-3.2213,-3.2214,-3.2232,-3.2243,-3.2227,-3.2293,-3.228,-3.2252,-3.2208,-3.2283,-3.231,-3.2322,-3.2168,-3.2167,-3.2166,-3.2165,0,0,-3.219,-3.2193,-3.2205,-3.2211,-3.2216,-3.2237,-3.2273,-3.2291,-3.2306,-3.2316,-3.2344,-3.2378,-3.2353,-3.2361,-3.2345,-3.2373,-3.2444,-3.2342,-3.2341,-3.236,-3.2517,-3.2536,-3.255,-3.2427,-3.243,-3.2431,-3.2516,0,-3.2273,-3.2333,-3.2316,-3.2376,-3.2401,-3.2368,-3.2399,-3.2406,-3.2401,-3.2421,-3.2416,-3.2439,-3.2405,-3.241,-3.2436,-3.243,-3.2475,-3.2424,-3.2453,-3.2454,-3.2451,-3.2564,-3.2585,-3.2665,-3.2527,-3.2529,-3.253,0,-3.2376,-3.2391,-3.2454,-3.2456,-3.2466,-3.2494,-3.2511,-3.2531,-3.2539,-3.2533,-3.2544,-3.2524,-3.2558,-3.2516,-3.2564,-3.2529,-3.2541,-3.254,-3.2543,-3.2543,-3.2495,-3.2566,-3.269,-3.2701,-3.2547,-3.2545,-3.2544,0,-3.2455,-3.2492,-3.2534,-3.254,-3.2544,-3.2565,-3.2567,-3.2573,-3.2585,-3.26,-3.2608,-3.2627,-3.2637,-3.2652,-3.2637,-3.2607,-3.2687,-3.2643,-3.2682,-3.2683,-3.2698,-3.2697,-3.2824,-3.2709,-3.2709,-3.2709,-3.2708,0,-3.2548,-3.2587,-3.257,-3.2596,-3.2639,-3.2621,-3.2664,-3.2663,-3.2669,-3.2694,-3.2667,-3.2691,-3.2671,-3.2693,-3.2682,-3.2723,-3.2728,-3.2724,-3.272,-3.2725,-3.2726,-3.2731,-3.2724,-3.2712,-3.2711,-3.271,-3.271,0,-3.2642,-3.2632,-3.2676,-3.2678,-3.2679,-3.2711,-3.2712,-3.2736,-3.273,-3.2762,-3.2769,-3.276,-3.2785,-3.2772,-3.2798,-3.2791,-3.2844,-3.2833,-3.2841,-3.2838,-3.2878,-3.2873,-3.301,-3.3027,-3.2903,-3.2904,-3.2905,0,-3.2701,-3.2731,-3.2736,-3.2751,-3.2756,-3.2781,-3.2794,-3.2778,-3.2793,-3.2805,-3.2828,-3.2851,-3.2869,-3.2911,-3.2906,-3.2926,-3.2915,-3.2962,-3.2918,-3.2922,-3.2914,-3.2912,-3.2915,-3.297,-3.2971,-3.2972,-3.2973,0,-3.2806,-3.28,-3.2821,-3.2841,-3.2858,-3.2872,-3.2884,-3.2899,-3.2883,-3.2901,-3.2927,-3.2941,-3.2969,-3.2992,-3.301,-3.3013,-3.299,-3.2988,-3.2998,-3.3002,-3.3005,-3.3003,-3.2864,-3.2984,-3.2983,-3.2982,-3.2982,-3.2981,-3.2883,-3.2908,-3.2916,-3.2941,-3.2949,-3.2961,-3.2984,-3.2982,-3.3004,-3.3025,-3.3015,-3.3045,-3.3053,-3.3076,-3.3081,-3.3105,-3.3086,-3.3101,-3.3104,-3.3108,-3.3113,-3.3004,-3.3108,-3.3108,-3.3108,-3.3107,-3.3107,0,-3.2985,-3.299,-3.3013,-3.3031,-3.3051,-3.303,-3.3043,-3.3061,-3.3088,-3.3098,-3.3117,-3.3147,-3.3171,-3.3169,-3.319,-3.321,-3.32,-3.3216,-3.3213,-3.3214,-3.3129,-3.3117,-3.3223,-3.3223,-3.3223,-3.3223,-3.3223,-3.3223,-3.3041,-3.3083,-3.3078,-3.3124,-3.3128,-3.3158,-3.3168,-3.3179,-3.3187,-3.3223,-3.3242,-3.3242,-3.3247,-3.3269,-3.329,-3.3289,-3.3297,-3.3316,-3.3311,-3.3231,-3.322,-3.3209,-3.3198,-3.3319,-3.3319,-3.3394,-3.3395,-3.3396]},{"header":{"parameterUnit":"m.s-1","parameterCategory":1,"la1":30.2991,"la2":30.254,"lo1":-89.0895,"lo2":-89.0444,"dy":0.0017,"dx":0.0017,"nx":28,"ny":28,"refTime":"2023-11-09T09:00:00:Z","depth":0,"parameterNumber":3,"parameterNumberName":"V-component_of_WINDS"},"data":[0,0,0,0,0,0,0,0,0,0,0,0,0,0,0,0,0,0,0,0,0,0,0,0,0,0,0,0,0,0,0,0,0,0,0,0,0,0,0,0,0,0,0,0,0,0,0,0,0,0,0,0,0,0,0,0,0,0,0.6759,0.6759,0,0.6771,0.6771,0.6772,0.6773,0.6773,0.6772,0.6772,0.6785,0.6786,0.6786,0,0,0,0,0,0,0,0,0,0,0,0,0,0.6739,0.6739,0.6759,0.6759,0.6759,0.6771,0.6771,0.6772,0.6773,0.6773,0.6772,0.6772,0.6785,0.6786,0.6786,0,0,0,0,0,0,0,0,0,0,0,0,0,0.6749,0.6739,0.6759,0.6761,0.6762,0.6771,0.6771,0.6772,0.6773,0.6773,0.6772,0.6772,0.6785,0.6786,0.6786,0.6795,0,0,0.6789,0.6789,0,0,0,0,0,0,0,0,0.6749,0.675,0.6761,0.6761,0.6762,0.677,0.6769,0.6779,0.6773,0.6768,0.6772,0.6772,0.6781,0.6782,0.6784,0.6795,0.6796,0.6789,0.6789,0.6789,0.679,0,0,0,0,0,0,0,0.6748,0.6749,0.6764,0.6761,0.6761,0.6763,0.6764,0.6771,0.6775,0.6769,0.6769,0.677,0.6781,0.6784,0.6785,0.6796,0.6789,0.6789,0.679,0.679,0.6818,0.6819,0,0,0,0,0,0,0.6747,0.6749,0.6764,0.6764,0.6754,0.6763,0.6764,0.6768,0.6775,0.6776,0.6771,0.677,0.6783,0.6784,0.6785,0.6798,0.6789,0.679,0.679,0.6818,0.6818,0.6819,0,0,0,0,0,0,0.6746,0.6748,0.6763,0.6757,0.6759,0.6764,0.6767,0.6768,0.6771,0.6777,0.6778,0.6773,0.6782,0.6784,0.6793,0.6798,0.679,0.6791,0.6818,0.6818,0.6818,0.6821,0,0,0,0,0,0,0.6745,0.6748,0.675,0.6757,0.6759,0.677,0.6767,0.6768,0.6772,0.6772,0.6779,0.678,0.6782,0.6792,0.6794,0.6799,0.6792,0.6817,0.6818,0.6818,0.6821,0.6822,0.6822,0,0,0,0,0,0.6745,0.675,0.675,0.6752,0.6762,0.677,0.6771,0.6774,0.6772,0.6776,0.678,0.678,0.6797,0.6793,0.6795,0.68,0.6817,0.6818,0.6818,0.682,0.6821,0.6822,0,0,0,0,0,0,0.6743,0.675,0.6751,0.6758,0.6764,0.677,0.6774,0.6775,0.6781,0.6781,0.6784,0.6786,0.6795,0.6798,0.6794,0.681,0.6807,0.6808,0.6808,0.6809,0.681,0.6809,0.6792,0,0,0,0,0,0.6743,0.6749,0.6755,0.6761,0.6764,0.6769,0.6772,0.6774,0.678,0.6782,0.6787,0.6793,0.68,0.6805,0.6811,0.6821,0.6824,0.6826,0.6827,0.6828,0.6829,0.6837,0.6839,0.6821,0.6821,0.6821,0,0,0.6744,0.6749,0.6752,0.6761,0.6765,0.6772,0.677,0.6777,0.6782,0.6783,0.6792,0.6796,0.6804,0.6814,0.6819,0.6817,0.6835,0.6829,0.6829,0.683,0.6838,0.684,0.6841,0.6822,0.6821,0.6821,0,0,0.6749,0.6753,0.6759,0.6764,0.6771,0.6775,0.6777,0.6784,0.6787,0.6796,0.6798,0.6805,0.6816,0.6822,0.6827,0.6838,0.6839,0.684,0.6845,0.6853,0.6855,0.6856,0.6862,0.6864,0.6841,0.6841,0.6841,0,0.6749,0.6758,0.6762,0.6769,0.6774,0.6776,0.6784,0.6788,0.6797,0.6801,0.6799,0.6816,0.6821,0.6834,0.6837,0.684,0.6844,0.6839,0.6854,0.6855,0.6857,0.6862,0.6864,0.6841,0.6841,0.6841,0.6841,0,0.6759,0.6766,0.6771,0.678,0.6786,0.6793,0.6799,0.6804,0.6806,0.6811,0.6822,0.6828,0.6838,0.6841,0.6842,0.6855,0.6854,0.6853,0.685,0.6859,0.6864,0.6866,0.6842,0.6842,0.6842,0.6841,0,0,0.6761,0.6775,0.6777,0.6782,0.6792,0.6798,0.6806,0.6816,0.6821,0.6828,0.6837,0.6848,0.6848,0.6854,0.6856,0.6863,0.6875,0.6862,0.6862,0.6866,0.6892,0.6893,0.6895,0.6876,0.6876,0.6876,0.6892,0,0.6768,0.6783,0.6788,0.6801,0.6809,0.6812,0.682,0.6828,0.6833,0.6841,0.6847,0.6856,0.6854,0.6858,0.6865,0.6872,0.688,0.6871,0.6885,0.6885,0.6884,0.6898,0.6899,0.6913,0.6894,0.6894,0.6894,0,0.6778,0.6786,0.68,0.6812,0.6815,0.6822,0.6833,0.684,0.685,0.6853,0.6861,0.6864,0.6875,0.6872,0.6888,0.6882,0.6888,0.6893,0.6893,0.6895,0.6891,0.6901,0.6917,0.692,0.6897,0.6897,0.6897,0,0.678,0.6795,0.6806,0.681,0.6823,0.6828,0.6834,0.6844,0.685,0.686,0.6865,0.6876,0.6882,0.6891,0.6898,0.6895,0.6915,0.6911,0.692,0.692,0.6924,0.6923,0.6942,0.6926,0.6926,0.6926,0.6926,0,0.6787,0.6796,0.6807,0.6814,0.6825,0.6831,0.6842,0.6848,0.6857,0.6867,0.6871,0.6879,0.6888,0.6898,0.6904,0.6918,0.692,0.6925,0.6926,0.6925,0.6924,0.6929,0.6929,0.6927,0.6927,0.6927,0.6926,0,0.6791,0.6798,0.6811,0.6823,0.6827,0.6835,0.6846,0.6854,0.686,0.6872,0.6875,0.6885,0.6898,0.6906,0.6922,0.6926,0.6943,0.6943,0.6939,0.694,0.6949,0.6948,0.6971,0.6976,0.6956,0.6956,0.6957,0,0.6795,0.6803,0.6817,0.6823,0.6829,0.684,0.6847,0.6855,0.6863,0.6876,0.6883,0.6896,0.6907,0.6928,0.6938,0.6951,0.6953,0.696,0.6954,0.6954,0.6955,0.6955,0.6957,0.6961,0.6961,0.6961,0.6961,0,0.6803,0.6807,0.6817,0.683,0.6839,0.6849,0.6859,0.6865,0.6875,0.6883,0.6897,0.6906,0.6924,0.6938,0.6952,0.696,0.6963,0.6963,0.6966,0.6965,0.6963,0.6966,0.6943,0.6962,0.6962,0.6962,0.6962,0.6962,0.6808,0.6816,0.6828,0.684,0.6849,0.6859,0.6868,0.6876,0.6888,0.6903,0.6907,0.6922,0.6935,0.6955,0.6963,0.6976,0.6975,0.6979,0.698,0.6981,0.6982,0.6961,0.6979,0.6979,0.6979,0.6979,0.6979,0,0.6817,0.6826,0.6837,0.6852,0.6863,0.6865,0.6878,0.6886,0.6899,0.6911,0.6923,0.694,0.6955,0.6967,0.6982,0.699,0.6993,0.6994,0.6994,0.6996,0.6981,0.6978,0.6993,0.6993,0.6993,0.6993,0.6993,0.6993,0.6823,0.6837,0.6843,0.6863,0.6872,0.6886,0.6894,0.6904,0.6914,0.6933,0.6945,0.6953,0.6966,0.6983,0.6998,0.7001,0.7007,0.7009,0.7013,0.6998,0.6997,0.6996,0.6993,0.701,0.701,0.7027,0.7027,0.7027]}]]